Home > Weather > Dushanbe > Past weeks

Flag for Tajikistan Weather for the Past 2 Weeks in Dushanbe, Tajikistan

Now
25 °F

Clear.


Feels Like: 25 °F
Forecast: 17 / 44 °F
Wind: No wind

Location: Dushanbe Airport

Current Time: Feb 11, 2016 at 11:09:12 PM

Latest Report: Feb 11, 2016 at 10:30 PM


Visibility: 4 mi

Pressure: 30.27 "Hg (27.24 "Hg at 832m altitude)

Humidity: 80%

Dew point: 19 °F

Location of DushanbeLocation

Historic Weather in Dushanbe — Graph

°F

Dushanbe Temperature Yesterday

Maximum temperature yesterday: 32 °F (at 12:00 AM)
Minimum temperature yesterday: 25 °F (at 8:00 PM)
Average temperature yesterday: 28 °F

High & Low Weather Summary for the Past Weeks

 TemperatureHumidityPressure
High68 °F (Feb 7, 1:30 PM)100% (Jan 28, 11:30 PM)30.48 "Hg (Jan 28, 11:30 PM)
Low23 °F (Feb 11, 2:00 AM)16% (Feb 7, 1:30 PM)29.95 "Hg (Jan 28, 7:00 PM)
Average39 °F69%30.24 "Hg
* Reported Jan 27 10:00 PM — Feb 11 10:00 PM, Dushanbe, Weather by CustomWeather, © 2016

Note: Actual official high and low records may vary slightly from our data, if they occured in-between our weather recording intervals... More about our weather records

Advertising

Dushanbe Weather History for the Previous 24 Hours

 ConditionsComfort  
Time TempWeatherWind HumidityBarometerVisibility
10:00 PM
Thu, Feb 11
27 °FClear.1 mph74%30.27 "Hg4 mi
9:30 PM25 °FClear.3 mph80%30.27 "Hg4 mi
9:00 PM27 °FIce fog.3 mph74%30.27 "Hg3 mi
8:30 PM27 °FIce fog.3 mph80%30.27 "Hg3 mi
8:00 PM27 °FIce fog.No wind80%30.30 "Hg2 mi
7:30 PM27 °FClear.1 mph80%30.30 "Hg4 mi
7:00 PM27 °FClear.1 mph80%30.27 "Hg5 mi
6:30 PM28 °FClear.1 mph69%30.27 "HgN/A
6:00 PM27 °FClear.1 mph74%30.27 "HgN/A
5:30 PM30 °FClear.No wind64%30.27 "HgN/A
5:00 PM30 °FClear.3 mph64%30.27 "HgN/A
4:30 PM30 °FClear.3 mph64%30.27 "HgN/A
4:00 PM32 °FClear.3 mph55%30.27 "HgN/A
3:30 PM32 °FClear.3 mph60%30.27 "Hg5 mi
3:00 PM32 °FClear.3 mph60%30.27 "Hg5 mi
2:30 PM34 °FClear.3 mph51%30.30 "Hg5 mi
2:00 PM32 °FClear.3 mph55%30.30 "Hg5 mi
1:30 PM30 °FClear.3 mph59%30.30 "Hg5 mi
1:00 PM30 °FPassing clouds.3 mph59%30.33 "Hg6 mi
12:30 PM30 °FScattered clouds.1 mph59%30.36 "HgN/A
12:00 PM28 °FOvercast.3 mph64%30.36 "HgN/A
11:30 AM30 °FOvercast.1 mph69%30.39 "HgN/A
11:00 AM30 °FIce fog.1 mph69%30.42 "Hg2 mi
10:30 AM30 °FIce fog.1 mph69%30.42 "Hg1 mi
10:00 AM28 °FIce fog.1 mph74%30.42 "Hg2 mi
9:30 AM27 °FIce fog.1 mph74%30.42 "Hg1 mi
9:00 AM25 °FIce fog.1 mph80%30.42 "Hg2 mi
8:30 AM23 °FIce fog.1 mph86%30.42 "Hg2 mi
8:00 AM23 °FIce fog.1 mph86%30.42 "Hg2 mi
7:00 AM25 °FOvercast.1 mph80%30.42 "Hg5 mi
6:30 AM25 °FOvercast.1 mph80%30.42 "Hg6 mi
6:00 AM23 °FOvercast.3 mph86%30.42 "Hg6 mi
5:30 AM23 °FOvercast.3 mph86%30.42 "HgN/A
5:00 AM23 °FPassing clouds.3 mph80%30.42 "HgN/A
4:30 AM23 °FPassing clouds.3 mph86%30.42 "HgN/A
4:00 AM23 °FPassing clouds.3 mph80%30.42 "HgN/A
3:30 AM25 °FPassing clouds.3 mph80%30.42 "HgN/A
3:00 AM25 °FPassing clouds.3 mph80%30.45 "HgN/A
2:30 AM23 °FPartly cloudy.3 mph93%30.45 "Hg6 mi
2:00 AM23 °FLight snow. Overcast.1 mph93%30.45 "HgN/A
1:30 AM25 °FLight snow. Overcast.3 mph86%30.45 "HgN/A
1:00 AM25 °FMostly cloudy.1 mph93%30.45 "Hg4 mi
12:30 AM25 °FIce fog.No wind93%30.45 "Hg3 mi
12:00 AM25 °FPassing clouds.1 mph93%30.48 "Hg4 mi
11:30 PM
Wed, Feb 10
25 °FLight snow. Partly cloudy.1 mph93%30.45 "Hg4 mi
11:00 PM25 °FLight snow. Mostly cloudy.3 mph86%30.48 "Hg5 mi
Weather by CustomWeather, © 2016

See weather overviewHow to use our weather pages